Location: Potawatomi Wildlife Park
(41.2308°N, 86.1050°W)
Time: 01:17:18
(UTC-04:00)

Hubble Space Telescope - Visible Passes

Search period start: 28 April 2015 00:00
Search period end: 08 May 2015 00:00
Orbit: 542 x 547 km, 28.5° (Epoch: 27 April)

Date Brightness Start Highest point End Pass type
(mag) Time Alt. Az. Time Alt. Az. Time Alt. Az.
01 May 3.1 22:10:26 10° S 22:10:32 10° S 22:10:32 10° S visible
02 May 2.9 22:01:14 10° SSW 22:02:48 12° S 22:02:48 12° S visible
03 May 2.8 21:52:16 10° SSW 21:54:16 13° S 21:54:57 13° SSE visible
04 May 2.8 21:43:25 10° SSW 21:45:33 14° S 21:46:59 12° SSE visible
05 May 2.8 21:34:39 10° SSW 21:36:51 14° S 21:38:56 10° SSE visible
06 May 2.9 21:25:57 10° SW 21:28:07 14° S 21:30:16 10° SSE visible
07 May 2.9 21:17:21 10° SW 21:19:24 13° S 21:21:24 10° SSE visible
